Showing default

RAPTOR1, 58957

Orbit data source: Space-Track

RAPTOR1, 58957 is a payload satellite owned by SDA (US) in LEO that was launched on Wed, 14 Feb 2024 UTC via an FALCON 9 launch vehicle from the Air Force Eastern Test Range (AFETR). Payload-class satellites include a variety of spacecraft equipped with specific instruments for various scientific and technological missions. These include communications satellites like Starlink; space stations such as the ISS; scientific satellites like the Hubble; Earth observation satellites from companies like Planet Labs, Umbra, and HawkEye 360; GPS; miniature CubeSats for education and research; and military/defense satellites.

Loading next visibility...
Identifier
58957, 2024-028C
Orbit
LEO
Country
Flag of USUS
Related business
Manufacturer
L3Harris SIS
Mission
Operational Defense Early Warn
Bus & Motor
TPL0-L3H, Unknown motor
Mass
~1,000 kg wet, ~1,000 kg dry
Launch date (UTC)
2024-02-14 (2 years ago)
Launch vehicle
FALCON 9
Launch site
Air Force Eastern Test Range (AFETR)
Object type
Payload
Rocket body
Debris
Shape & HBR
Box + 1 Pan, 1.0 m
Radar Cross Section
0.945 m², Large (>1 m²)

Expand to show TLE details & history
Last TLE update: 1 week ago

TLE from 1 week ago
0 RAPTOR1
1 58957U 24028C   26152.34516435 -.00000057  00000-0  22869-4 0  9991
2 58957  39.9890 116.7220 0011668 164.9169 195.1927 13.70767634114881
Epoch: 2026-06-01T08:17Z
TLE epoch observation values (Epoch: 2026-06-01T08:17:02.199Z)
Latitude
-0.00004°
Longitude
102.62897°
Altitude
1,004.601 km
Speed
7.347 km/s
True Right ascension
07h 46m 53s
True Declination
0° 00' 00"
Sunlit
Object was in daylight at epoch
Visualization orbit readout
Latitude
Unknown
Longitude
Unknown
Altitude
Unknown
Speed
Unknown
Apparent Right ascension
Unknown
Apparent Declination
Unknown
Sunlit
N/A
Visualization observer readout
Local Sidereal Time
12:59:35
Azimuth
Unknown
Elevation
Unknown
Doppler factor
Unknown
Orbital elements
Apogee altitude
1,007.702 km
Perigee altitude
990.486 km
Semi-major axis
7,377.231 km
Eccentricity
0.00117
Inclination
39.989°
RAAN
116.722°
Arg. of periapsis
164.9169°
True anomaly
195.15771°
Mean anomaly
195.1927°
Eccentric anomaly
195.1752°
Mean motion
3.42534 °/min
Orbital period
105.1 mins
BSTAR
0.000022869
Loading maneuver chart data...
Computing Atmospheric mass density...
Loading historical data...
Loading historical data...
Loading historical data...
Loading historical data...
Loading historical data...
Loading historical data...
Loading historical data...
Other satellites on launch #28 in the year 2024 (2024-02-14 UTC)

Documentation

Showing up to 5 results
|